| time (UTC) | temp F | wind direction | speed knots | gust knots | rain 1hr in | rain 24hr in | rain mn in | humidity % | barometer mb |
| 20260904144521 | 94 | 200 | 0.9 | 3.5 | 0.00 | 0.00 | 0.00 | 33 | 1015.8 |
| 20260904143020 | 93 | 126 | 0.9 | 7.0 | 0.00 | 0.00 | 0.00 | 32 | 1015.8 |
| 20260904141516 | 93 | 94 | 0.0 | 3.5 | 0.00 | 0.00 | 0.00 | 32 | 1016.0 |
| 20260904140015 | 93 | 241 | 2.6 | 5.2 | 0.00 | 0.00 | 0.00 | 32 | 1016.2 |
| 20260904134514 | 92 | 181 | 1.7 | 6.1 | 0.00 | 0.00 | 0.00 | 33 | 1016.3 |
| 20260904133009 | 92 | 192 | 1.7 | 3.5 | 0.00 | 0.00 | 0.00 | 34 | 1016.5 |
| 20260904131507 | 91 | 209 | 1.7 | 5.2 | 0.00 | 0.00 | 0.00 | 34 | 1016.6 |
| 20260904130004 | 91 | 269 | 2.6 | 5.2 | 0.00 | 0.00 | 0.00 | 36 | 1016.9 |
| 20260904124501 | 91 | 127 | 0.9 | 6.1 | 0.00 | 0.00 | 0.00 | 36 | 1017.1 |
| 20260904123059 | 90 | 317 | 0.9 | 3.5 | 0.00 | 0.00 | 0.00 | 37 | 1017.2 |
| 20260904121555 | 89 | 193 | 2.6 | 5.2 | 0.00 | 0.00 | 0.00 | 38 | 1017.4 |
| 20260904120059 | 88 | 118 | 2.6 | 4.3 | 0.00 | 0.00 | 0.00 | 38 | 1017.6 |
| 20260904114557 | 87 | 296 | 1.7 | 3.5 | 0.00 | 0.00 | 0.00 | 39 | 1017.7 |
| 20260904113047 | 87 | 105 | 1.7 | 4.3 | 0.00 | 0.00 | 0.00 | 40 | 1017.8 |
| 20260904111543 | 86 | 5 | 0.9 | 3.5 | 0.00 | 0.00 | 0.00 | 39 | 1018.1 |
| 20260904110041 | 86 | 211 | 0.0 | 4.3 | 0.00 | 0.00 | 0.00 | 39 | 1018.2 |
| 20260904104601 | 85 | 178 | 1.7 | 3.5 | 0.00 | 0.00 | 0.00 | 41 | 1018.5 |
| 20260904103035 | 83 | 289 | 0.0 | 3.5 | 0.00 | 0.00 | 0.00 | 42 | 1018.7 |
| 20260904101537 | 83 | 291 | 1.7 | 5.2 | 0.00 | 0.00 | 0.00 | 44 | 1018.8 |
| 20260904100026 | 83 | 128 | 0.9 | 2.6 | 0.00 | 0.00 | 0.00 | 44 | 1019.0 |
| 20260904094527 | 82 | 217 | 0.0 | 3.5 | 0.00 | 0.00 | 0.00 | 46 | 1019.0 |
| 20260904093017 | 82 | 129 | 1.7 | 3.5 | 0.00 | 0.00 | 0.00 | 47 | 1019.1 |
| 20260904091513 | 80 | 178 | 2.6 | 5.2 | 0.00 | 0.00 | 0.00 | 48 | 1019.2 |
| 20260904090015 | 78 | 159 | 2.6 | 5.2 | 0.00 | 0.00 | 0.00 | 51 | 1019.2 |
| 20260904084507 | 77 | 221 | 1.7 | 4.3 | 0.00 | 0.00 | 0.00 | 52 | 1019.3 |
| 20260904083002 | 76 | 186 | 1.7 | 5.2 | 0.00 | 0.00 | 0.00 | 54 | 1019.2 |
| 20260904081557 | 76 | 175 | 3.5 | 7.0 | 0.00 | 0.00 | 0.00 | 54 | 1019.2 |
| 20260904080111 | 73 | 157 | 2.6 | 6.1 | 0.00 | 0.00 | 0.00 | 59 | 1019.2 |
| 20260904074558 | 72 | 189 | 1.7 | 7.0 | 0.00 | 0.00 | 0.00 | 61 | 1019.2 |
| 20260904073044 | 70 | 145 | 1.7 | 4.3 | 0.00 | 0.00 | 0.00 | 66 | 1019.1 |
| 20260904071540 | 67 | 150 | 1.7 | 5.2 | 0.00 | 0.00 | 0.00 | 70 | 1019.1 |
| 20260904070041 | 64 | 159 | 0.0 | 0.0 | 0.00 | 0.00 | 0.00 | 77 | 1019.2 |
| 20260904064530 | 62 | 146 | 0.0 | 0.0 | 0.00 | 0.00 | 0.00 | 81 | 1019.2 |
| 20260904063027 | 61 | 132 | 0.0 | 0.0 | 0.00 | 0.00 | 0.00 | 83 | 1019.3 |
| 20260904061528 | 59 | 147 | 0.0 | 0.0 | 0.00 | 0.00 | 0.00 | 86 | 1019.4 |
| 20260904060020 | 58 | 147 | 0.0 | 0.0 | 0.00 | 0.00 | 0.00 | 87 | 1019.2 |
| 20260904054517 | 57 | 147 | 0.0 | 0.0 | 0.00 | 0.00 | 0.00 | 87 | 1019.2 |
| 20260904053011 | 57 | 134 | 0.0 | 0.0 | 0.00 | 0.00 | 0.00 | 87 | 1019.3 |
| 20260904051511 | 57 | 130 | 0.0 | 0.0 | 0.00 | 0.00 | 0.00 | 86 | 1019.3 |
| 20260904050024 | 57 | 124 | 0.0 | 0.0 | 0.00 | 0.00 | 0.00 | 86 | 1019.4 |
| 20260904044516 | 57 | 132 | 0.0 | 0.0 | 0.00 | 0.00 | 0.00 | 87 | 1019.3 |
| 20260904043007 | 57 | 127 | 0.0 | 0.0 | 0.00 | 0.00 | 0.00 | 87 | 1019.4 |
| 20260904041505 | 57 | 123 | 0.9 | 2.6 | 0.00 | 0.00 | 0.00 | 87 | 1019.6 |
| 20260904040004 | 57 | 136 | 0.0 | 0.0 | 0.00 | 0.00 | 0.00 | 87 | 1019.7 |
| 20260904034502 | 57 | 122 | 0.0 | 0.0 | 0.00 | 0.00 | 0.00 | 88 | 1019.8 |
| 20260904033107 | 57 | 142 | 0.0 | 0.0 | 0.00 | 0.00 | 0.00 | 88 | 1020.0 |
| 20260904031600 | 57 | 126 | 0.0 | 0.0 | 0.00 | 0.00 | 0.00 | 88 | 1020.0 |
| 20260904030059 | 58 | 128 | 0.0 | 0.0 | 0.00 | 0.00 | 0.00 | 88 | 1020.0 |
| 20260904024615 | 58 | 128 | 0.0 | 0.0 | 0.00 | 0.00 | 0.00 | 87 | 1020.1 |
| 20260904023104 | 58 | 123 | 0.0 | 0.0 | 0.00 | 0.00 | 0.00 | 87 | 1020.3 |
| 20260904021557 | 58 | 125 | 0.0 | 0.0 | 0.00 | 0.00 | 0.00 | 87 | 1020.4 |
| 20260904020052 | 58 | 125 | 0.0 | 0.0 | 0.00 | 0.00 | 0.00 | 87 | 1020.5 |
| 20260904014604 | 58 | 125 | 0.0 | 0.0 | 0.00 | 0.00 | 0.00 | 87 | 1020.7 |
| 20260904013049 | 59 | 125 | 0.0 | 0.0 | 0.00 | 0.00 | 0.00 | 86 | 1020.7 |
| 20260904011549 | 59 | 121 | 0.0 | 0.0 | 0.00 | 0.00 | 0.00 | 85 | 1020.8 |
| 20260904010049 | 59 | 121 | 0.0 | 0.0 | 0.00 | 0.00 | 0.00 | 84 | 1020.8 |
| 20260904004544 | 60 | 120 | 0.0 | 0.0 | 0.00 | 0.00 | 0.00 | 85 | 1020.9 |
| 20260904003042 | 60 | 121 | 0.0 | 0.0 | 0.00 | 0.00 | 0.00 | 84 | 1021.0 |
| 20260904001541 | 60 | 121 | 0.0 | 0.0 | 0.00 | 0.00 | 0.00 | 83 | 1021.1 |
| 20260903234538 | 61 | 121 | 0.0 | 0.0 | 0.00 | 0.00 | 0.00 | 83 | 1021.3 |
| 20260903233048 | 61 | 121 | 0.0 | 0.0 | 0.00 | 0.00 | 0.00 | 82 | 1021.3 |
| 20260903231534 | 62 | 121 | 0.0 | 0.0 | 0.00 | 0.00 | 0.00 | 81 | 1021.3 |
| 20260903230033 | 62 | 121 | 0.0 | 0.0 | 0.00 | 0.00 | 0.00 | 80 | 1021.2 |
| 20260903224540 | 63 | 121 | 0.0 | 0.0 | 0.00 | 0.00 | 0.00 | 80 | 1021.3 |
| 20260903223043 | 63 | 121 | 0.0 | 0.0 | 0.00 | 0.00 | 0.00 | 79 | 1021.4 |
| 20260903221528 | 64 | 121 | 0.0 | 0.0 | 0.00 | 0.00 | 0.00 | 78 | 1021.4 |
| 20260903220024 | 64 | 121 | 0.0 | 0.0 | 0.00 | 0.00 | 0.00 | 77 | 1021.3 |
| 20260903214524 | 65 | 121 | 0.0 | 0.0 | 0.00 | 0.00 | 0.00 | 75 | 1021.3 |
| 20260903213039 | 65 | 120 | 0.0 | 0.0 | 0.00 | 0.00 | 0.00 | 74 | 1021.5 |
| 20260903211526 | 66 | 121 | 0.0 | 0.0 | 0.00 | 0.00 | 0.00 | 74 | 1021.5 |
| 20260903210023 | 66 | 121 | 0.0 | 0.0 | 0.00 | 0.00 | 0.00 | 73 | 1021.5 |
| 20260903204522 | 67 | 121 | 0.0 | 1.7 | 0.00 | 0.00 | 0.00 | 72 | 1021.6 |
| 20260903203028 | 67 | 122 | 0.0 | 0.0 | 0.00 | 0.00 | 0.00 | 69 | 1021.5 |
| 20260903201522 | 68 | 122 | 0.0 | 1.7 | 0.00 | 0.00 | 0.00 | 68 | 1021.5 |
| 20260903200021 | 69 | 68 | 0.9 | 1.7 | 0.00 | 0.00 | 0.00 | 68 | 1021.5 |
| 20260903194620 | 70 | 67 | 0.9 | 1.7 | 0.00 | 0.00 | 0.00 | 65 | 1021.5 |
| 20260903193020 | 71 | 67 | 0.9 | 2.6 | 0.00 | 0.00 | 0.00 | 62 | 1021.4 |
| 20260903191556 | 72 | 5 | 0.9 | 1.7 | 0.00 | 0.00 | 0.00 | 61 | 1021.3 |
| 20260903190100 | 74 | 360 | 0.0 | 0.0 | 0.00 | 0.00 | 0.00 | 58 | 1021.1 |
| 20260903184556 | 75 | 360 | 0.0 | 0.0 | 0.00 | 0.00 | 0.00 | 54 | 1020.9 |
| 20260903183055 | 77 | 360 | 0.0 | 1.7 | 0.00 | 0.00 | 0.00 | 50 | 1020.8 |
| 20260903181556 | 79 | 355 | 0.9 | 2.6 | 0.00 | 0.00 | 0.00 | 46 | 1020.8 |
| 20260903180057 | 80 | 355 | 0.9 | 3.5 | 0.00 | 0.00 | 0.00 | 44 | 1020.9 |
| 20260903174554 | 81 | 355 | 0.9 | 2.6 | 0.00 | 0.00 | 0.00 | 42 | 1020.7 |
| 20260903173053 | 82 | 355 | 1.7 | 4.3 | 0.00 | 0.00 | 0.00 | 40 | 1020.8 |
| 20260903171601 | 83 | 316 | 2.6 | 5.2 | 0.00 | 0.00 | 0.00 | 38 | 1020.7 |
| 20260903164551 | 84 | 16 | 2.6 | 5.2 | 0.00 | 0.00 | 0.00 | 37 | 1020.9 |
| 20260903163050 | 84 | 360 | 4.3 | 7.8 | 0.00 | 0.00 | 0.00 | 36 | 1020.8 |
| 20260903161549 | 85 | 28 | 1.7 | 7.0 | 0.00 | 0.00 | 0.00 | 36 | 1020.9 |
| 20260903160050 | 86 | 51 | 0.9 | 5.2 | 0.00 | 0.00 | 0.00 | 35 | 1020.9 |
| 20260903154554 | 86 | 317 | 3.5 | 8.7 | 0.00 | 0.00 | 0.00 | 35 | 1021.0 |
| 20260903153047 | 86 | 307 | 2.6 | 8.7 | 0.00 | 0.00 | 0.00 | 35 | 1021.0 |
| 20260903151546 | 86 | 348 | 1.7 | 5.2 | 0.00 | 0.00 | 0.00 | 37 | 1021.0 |
| 20260903150057 | 86 | 321 | 4.3 | 8.7 | 0.00 | 0.00 | 0.00 | 36 | 1021.0 |